Location: New Canada
(47.1017°N, 68.5042°W)
Time: 17:18:38
(UTC+00:00)

PCSat - Visible Passes

Search period start: 16 April 2024 00:00
Search period end: 26 April 2024 00:00
Orbit: 783 x 792 km, 67.0° (Epoch: 15 April)

Date Brightness Start Highest point End Pass type
(mag) Time Alt. Az. Time Alt. Az. Time Alt. Az.
16 Apr 10.2 00:26:17 10° S 00:31:01 32° ESE 00:35:47 10° NE visible
16 Apr 10.5 02:09:00 10° WSW 02:14:12 47° NW 02:19:26 10° NNE visible
16 Apr 12.5 03:56:04 10° WNW 03:58:56 14° NNW 04:01:50 10° N visible
16 Apr 12.5 07:27:39 10° N 07:30:48 15° NNE 07:33:57 10° ENE visible
16 Apr 10.6 09:10:07 10° NNW 09:15:26 52° NE 09:20:43 10° SE visible
16 Apr 10.6 23:55:22 10° SSE 23:59:35 24° ESE 00:03:50 10° ENE visible
17 Apr 10.1 01:37:10 10° SW 01:42:30 61° NW 01:47:54 10° NNE visible
17 Apr 12.3 03:23:32 10° WNW 03:26:59 17° NNW 03:30:27 10° N visible
17 Apr 12.6 06:56:19 10° N 06:58:50 13° NNE 07:01:21 10° NE visible
17 Apr 11.1 08:38:35 10° NNW 08:43:43 41° NE 08:48:48 10° ESE visible
18 Apr 9.7 01:05:27 10° SW 01:10:52 80° NW 01:16:19 10° NNE visible
18 Apr 12.1 02:51:08 10° W 02:55:04 20° NW 02:59:02 10° NNE visible
18 Apr 12.8 06:25:04 10° N 06:26:49 11° NNE 06:28:35 10° NE visible
18 Apr 11.5 08:07:05 10° NNW 08:11:57 32° NE 08:16:47 10° ESE visible
19 Apr 9.5 00:33:52 10° SSW 00:39:16 78° ESE 00:44:42 10° NE visible
19 Apr 11.9 02:18:50 10° W 02:23:12 24° NW 02:27:36 10° NNE visible
19 Apr 12.9 05:54:14 10° N 05:54:47 10° NNE 05:55:20 10° NNE visible
19 Apr 11.9 07:35:37 10° NNW 07:40:09 26° NE 07:44:40 10° E visible
20 Apr 9.6 00:02:25 10° SSW 00:07:42 58° ESE 00:13:01 10° NE visible
20 Apr 11.6 01:46:40 10° WSW 01:51:23 30° NW 01:56:08 10° NNE visible
20 Apr 12.9 03:35:11 10° NNW 03:36:36 11° NNW 03:38:01 10° N visible
20 Apr 12.1 07:04:10 10° NNW 07:08:18 21° NE 07:12:24 10° E visible
20 Apr 9.6 08:46:57 10° NNW 08:52:25 88° ENE 08:57:50 10° SSE visible
21 Apr 11.2 01:14:36 10° WSW 01:19:37 37° NW 01:24:39 10° NNE visible
21 Apr 12.8 03:02:19 10° NW 03:04:35 12° NNW 03:06:51 10° N visible
21 Apr 12.4 06:32:45 10° N 06:36:24 18° NNE 06:40:02 10° ENE visible
21 Apr 10.0 08:15:22 10° NNW 08:20:47 67° NE 08:26:10 10° SE visible
22 Apr 10.7 00:42:39 10° SW 00:47:52 48° NW 00:53:08 10° NNE visible
22 Apr 12.7 02:29:40 10° WNW 02:32:36 14° NNW 02:35:32 10° N visible
22 Apr 12.6 06:01:22 10° N 06:04:28 15° NNE 06:07:33 10° ENE visible
22 Apr 10.5 07:43:48 10° NNW 07:49:07 51° NE 07:54:23 10° SE visible
23 Apr 10.2 00:10:50 10° SW 00:16:11 62° NW 00:21:35 10° NNE visible
23 Apr 12.5 01:57:09 10° WNW 02:00:38 17° NNW 02:04:09 10° N visible
23 Apr 12.7 05:30:01 10° N 05:32:29 13° NNE 05:34:56 10° NE visible
23 Apr 11.0 07:12:16 10° NNW 07:17:23 40° NE 07:22:28 10° ESE visible
23 Apr 10.0 08:55:44 10° NW 09:00:44 39° WSW 09:05:43 10° S visible
24 Apr 12.3 01:24:45 10° W 01:28:44 20° NW 01:32:44 10° NNE visible
24 Apr 12.8 04:58:47 10° N 05:00:28 11° NNE 05:02:08 10° NE visible
24 Apr 11.4 06:40:47 10° NNW 06:45:37 32° NE 06:50:26 10° ESE visible
24 Apr 9.7 08:23:57 10° NW 08:29:14 53° WSW 08:34:28 10° SSE visible
25 Apr 12.1 00:52:28 10° W 00:56:52 25° NW 01:01:18 10° NNE visible
25 Apr 12.9 04:28:09 10° N 04:28:25 10° NNE 04:28:42 10° NNE visible
25 Apr 11.7 06:09:18 10° NNW 06:13:48 26° NE 06:18:17 10° E visible
25 Apr 9.5 07:52:15 10° NW 07:57:41 72° WSW 08:03:03 10° SSE visible
